Lexington Weather

Lexington, Massachusetts, USA

68°F
7/3/2020 12:57pm 
  • Lexington Conditions: Overcast
  • Temperature: 67.8°F / 19.9°CColder 0.7°F than last hour.
  • Dew Point: 63.9°FDecreased 0.7°Fsince last hour.
  • Relative Humidity: 87
  • Wind: Wind from NNE NNE 1 mph, 10-min avg: 1 mph, gust: 4 mph
  • Barometer: 29.86 in Steady
  • Visibility: 10 miles
  • Rain Today: 0.00 in
  •   

Regional Weather Roundup
for Boston / Norton, MA

        
000
ASUS41 KBOX 281004
RWRBOX

REGIONAL WEATHER ROUNDUP
NATIONAL WEATHER SERVICE BOSTON/NORTON MA
600 AM EDT SUN JUN 28 2020

NOTE:  "FAIR" INDICATES FEW OR NO CLOUDS BELOW 12,000 FEET WITH NO 
SIGNIFICANT WEATHER AND/OR OBSTRUCTIONS TO VISIBILITY.

MAZALL-281100-
EASTERN MASSACHUSETTS
  
CITY           SKY/WX    TMP DP  RH WIND       PRES   REMARKS
BOSTON         PTCLDY    66  63  90 SW7       29.74R                  
BEVERLY        CLEAR     62  61  96 SW3       29.72R FOG              
LAWRENCE       CLEAR     64  62  93 SW5       29.75R                  
BEDFORD        CLEAR     62  60  93 CALM      29.72R                  
BLUE HILL        N/A     62  62 100 SW8       29.75R                  
NORWOOD        CLEAR     62  60  93 CALM      29.75R FOG              
MARSHFIELD     CLEAR     66  66 100 VRB3      29.74R FOG              
PLYMOUTH       MOCLDY    64  64 100 SW7       29.75R FOG              
TAUNTON        CLEAR     66  63  90 CALM      29.74R                  
NEW BEDFORD    MOCLDY    65  65 100 CALM      29.74S FOG              
$$

MAZALL-281100-
CAPE COD AND THE ISLANDS
  
CITY           SKY/WX    TMP DP  RH WIND       PRES   REMARKS
FALMOUTH       MOCLDY    66  66 100 W7        29.75R                  
HYANNIS        MOCLDY    69  66  90 SW8       29.75R FOG              
CHATHAM        CLOUDY    67  64  90 SW5       29.76R FOG              
PROVINCETOWN   MOCLDY    64  64 100 SW6       29.74R FOG              
NANTUCKET      CLOUDY    67  65  93 W8        29.76R                  
MARTHAS VNYRD  CLOUDY    66  65  96 CALM      29.75R FOG              
$$
 
MAZALL-281100-
CENTRAL AND WESTERN MASSACHUSETTS
  
CITY           SKY/WX    TMP DP  RH WIND       PRES   REMARKS
WORCESTER      CLEAR     64  60  87 W10       29.76R                  
FITCHBURG      CLEAR     63  59  87 SE5       29.75R                  
ORANGE         CLOUDY    60  60 100 CALM      29.76R FOG              
SPRINGFIELD    CLOUDY    63  63 100 CALM      29.75R FOG              
WESTFIELD      CLEAR     61  60  97 CALM      29.75R                  
NORTH ADAMS    CLOUDY    62  61  96 CALM      29.76R FOG              
PITTSFIELD     FOG       62  61  96 CALM      29.76S VSB 1/4          
$$
 
RIZALL-281100-
RHODE ISLAND
  
CITY           SKY/WX    TMP DP  RH WIND       PRES   REMARKS
PROVIDENCE     PTCLDY    65  64  97 SW3       29.75S                  
NEWPORT        CLOUDY    65  63  93 CALM      29.75S FOG              
BLOCK ISLAND   CLEAR     64  62  93 SW3       29.76R                  
SMITHFIELD     FOG       62  62 100 CALM      29.76S VSB 1            
WESTERLY       PTCLDY    65  61  87 CALM      29.76R FOG              
$$
 
CTZALL-281100-
CONNECTICUT
  
CITY           SKY/WX    TMP DP  RH WIND       PRES   REMARKS
BRADLEY INTL   FOG       62  61  96 SE3       29.75R VSB<1/4          
HARTFORD       PTCLDY    64  62  93 CALM      29.75R                  
BRIDGEPORT     PTCLDY    68  66  93 N3        29.74R                  
DANBURY        MOCLDY    61  61 100 CALM      29.77S                  
GROTON         CLEAR     63  62  97 CALM      29.75R FOG              
NEW HAVEN      CLEAR     66  65  96 CALM      29.75R FOG              
CHESTER        NOT AVBL                                               
MERIDEN        FOG       61  60  97 CALM      29.75R VSB 1            
WILLIMANTIC    FOG       62  62 100 MISG      29.76R VSB 3/4          
OXFORD         PTCLDY    61  61 100 CALM      29.78R FOG              
$$

MEZ002-015-021-024-NHZ003-005-008-011-012-014-VTZ005-008-281100-
NORTHERN NEW ENGLAND
  
CITY           SKY/WX    TMP DP  RH WIND       PRES   REMARKS
PORTLAND ME    PTCLDY    62  59  90 N3        29.71S                  
BANGOR ME      FOG       62  60  93 CALM      29.73R VSB 1/4          
CONCORD NH     CLEAR     58  57  97 E3        29.73R                  
MANCHESTER NH  PTCLDY    63  61  93 CALM      29.72R                  
NASHUA NH      CLEAR     60  60 100 NW3       29.74R                  
PORTSMOUTH NH  PTCLDY    63  61  95 W3        29.70R                  
JAFFREY NH     PTCLDY    61  58  90 S5        29.76R                  
KEENE NH       CLOUDY    60  59  96 S3        29.76R FOG              
BURLINGTON VT  MOCLDY    67  61  81 S7        29.71R                  
MT. WASHINGTON PTCLDY    50  46  87 W10         N/A                   
$$

NYZ052-076-281100-
EASTERN NEW YORK
  
CITY           SKY/WX    TMP DP  RH WIND       PRES   REMARKS
ALBANY         FOG       66  63  90 S6        29.74R VSB 1/4          
NEW YORK CITY  MOCLDY    76  67  73 VRB5      29.73R                  
$$
 
ANZALL-281100-
MARINE OBSERVATIONS
  
STATION/POSITION TIME  TEMP    WIND        PRES    VSBY  WAVE
                       AIR SEA DIR/SP/G                  HT/PER
                 (UTC) (F)     (DEG/KT/KT) (MB)    (MI)  (FT/S)
BOSTON BUOY      0950   66 68  230/  8/ 10 1005.3R         1/10
BUZZARDS BAY     0900          240/ 15/ 16 1008.4R
NANTUCKET SOUND  0950   67 70  240/ 14/ 16 1006.9R         1/ 7
MASS BAY-STELLWA NOT AVBL
ISLE OF SHOALS   0900   65     250/  4/  4 1005.4R
S OF BLOCK IS    0926      69                N/A           4/ 6
$$

......................KEY.........................
  SKY/WX - SKY CONDITION/PRESENT WEATHER
  TMP    - TEMPERATURE IN FAHRENHEIT
  DWPT   - DEWPOINT IN FAHRENHEIT
  RH     - RELATIVE HUMIDITY IN PERCENT
  WIND   - DIRECTION AND SPEED IN MPH
  PRES   - MEAN SEA LEVEL PRESSURE IN INCHES OF HG
  WCI    - WIND CHILL INDEX
  VSB    - VISIBILITY IN MILES
  HX     - HEAT INDEX
  TC     - TEMPERATURE IN CELSIUS
  VRB    - VARIABLE WIND DIRECTION
  N/A    - NOT AVAILABLE
  
      

Other recent Regional Weather Roundups

Fri Jul 3, 12:04pm

Fri Jul 3, 11:04am

Fri Jul 3, 10:04am

Fri Jul 3, 9:04am

Fri Jul 3, 8:04am

Fri Jul 3, 7:04am

Fri Jul 3, 6:04am

Fri Jul 3, 5:04am

Fri Jul 3, 4:04am

Fri Jul 3, 3:04am

Fri Jul 3, 2:04am

Fri Jul 3, 1:04am

Fri Jul 3, 12:04am

Thu Jul 2, 11:05pm

Thu Jul 2, 10:04pm

Thu Jul 2, 9:04pm

Thu Jul 2, 8:04pm

Thu Jul 2, 7:05pm

Thu Jul 2, 6:04pm

Thu Jul 2, 5:05pm

Thu Jul 2, 4:04pm

Thu Jul 2, 3:04pm

Thu Jul 2, 2:04pm

Thu Jul 2, 1:05pm

Thu Jul 2, 12:04pm

Thu Jul 2, 11:04am

Thu Jul 2, 10:05am

Thu Jul 2, 9:05am

Thu Jul 2, 8:04am

Thu Jul 2, 7:04am

Thu Jul 2, 6:05am

Thu Jul 2, 5:04am

Thu Jul 2, 4:04am

Thu Jul 2, 3:04am

Thu Jul 2, 2:04am

Thu Jul 2, 1:04am

Thu Jul 2, 12:05am

Wed Jul 1, 11:05pm

Wed Jul 1, 10:04pm

Wed Jul 1, 9:04pm

Wed Jul 1, 8:04pm

Wed Jul 1, 7:04pm

Wed Jul 1, 6:04pm

Wed Jul 1, 5:05pm

Wed Jul 1, 4:04pm

Wed Jul 1, 3:04pm

Wed Jul 1, 2:04pm

Wed Jul 1, 1:04pm

Wed Jul 1, 12:04pm

Wed Jul 1, 11:04am

Wed Jul 1, 10:04am

Wed Jul 1, 9:04am

Wed Jul 1, 8:05am

Wed Jul 1, 7:04am

Wed Jul 1, 6:04am

Wed Jul 1, 5:04am

Wed Jul 1, 4:04am

Wed Jul 1, 3:04am

Wed Jul 1, 2:04am

Wed Jul 1, 1:04am

Wed Jul 1, 12:04am

Tue Jun 30, 11:04pm

Tue Jun 30, 10:05pm

Tue Jun 30, 9:04pm

Tue Jun 30, 8:05pm

Tue Jun 30, 7:05pm

Tue Jun 30, 6:04pm

Tue Jun 30, 5:04pm

Tue Jun 30, 4:04pm

Tue Jun 30, 3:04pm

Tue Jun 30, 2:04pm

Tue Jun 30, 1:04pm

Tue Jun 30, 12:04pm

Tue Jun 30, 11:04am

Tue Jun 30, 10:04am

Tue Jun 30, 9:04am

Tue Jun 30, 8:04am

Tue Jun 30, 7:04am

Tue Jun 30, 6:04am

Tue Jun 30, 5:04am

Tue Jun 30, 4:04am

Tue Jun 30, 3:04am

Tue Jun 30, 2:04am

Tue Jun 30, 1:04am

Tue Jun 30, 12:04am

Mon Jun 29, 11:04pm

Mon Jun 29, 10:05pm

Mon Jun 29, 9:04pm

Mon Jun 29, 8:05pm

Mon Jun 29, 7:04pm

Mon Jun 29, 6:04pm

Mon Jun 29, 5:04pm

Mon Jun 29, 4:05pm

Mon Jun 29, 3:04pm

Mon Jun 29, 2:04pm

Mon Jun 29, 1:04pm

Mon Jun 29, 12:04pm

Mon Jun 29, 11:04am

Mon Jun 29, 10:04am

Mon Jun 29, 9:04am

Mon Jun 29, 8:04am

Mon Jun 29, 7:04am

Mon Jun 29, 6:04am

Mon Jun 29, 5:04am

Mon Jun 29, 4:04am

Mon Jun 29, 3:04am

Mon Jun 29, 2:04am

Mon Jun 29, 1:04am

Mon Jun 29, 12:04am

Sun Jun 28, 11:05pm

Sun Jun 28, 10:04pm

Sun Jun 28, 9:05pm

Sun Jun 28, 8:04pm

Sun Jun 28, 7:04pm

Sun Jun 28, 6:04pm

Sun Jun 28, 5:04pm

Sun Jun 28, 4:04pm

Sun Jun 28, 3:04pm

Sun Jun 28, 2:05pm

Sun Jun 28, 1:04pm

Sun Jun 28, 12:04pm

Sun Jun 28, 11:04am

Sun Jun 28, 10:04am

Sun Jun 28, 9:04am

Sun Jun 28, 8:04am

Sun Jun 28, 7:04am

Sun Jun 28, 5:04am

Sun Jun 28, 4:04am

Sun Jun 28, 3:04am

Sun Jun 28, 2:05am

Sun Jun 28, 1:04am

Sun Jun 28, 12:05am

Sat Jun 27, 11:04pm

Sat Jun 27, 10:04pm

Sat Jun 27, 9:04pm

Sat Jun 27, 8:04pm

Sat Jun 27, 7:04pm

Sat Jun 27, 6:04pm

Sat Jun 27, 5:04pm

Sat Jun 27, 4:05pm

Sat Jun 27, 3:04pm

Sat Jun 27, 2:04pm

Sat Jun 27, 1:05pm

Sat Jun 27, 12:04pm

Sat Jun 27, 11:04am

Sat Jun 27, 10:04am

Sat Jun 27, 9:04am

Sat Jun 27, 8:04am

Sat Jun 27, 7:04am

Sat Jun 27, 6:04am

Sat Jun 27, 5:05am

Sat Jun 27, 4:04am

Sat Jun 27, 3:04am

Sat Jun 27, 2:04am

Sat Jun 27, 1:04am

Sat Jun 27, 12:04am

Fri Jun 26, 11:04pm

Fri Jun 26, 10:04pm

Fri Jun 26, 9:05pm

Fri Jun 26, 8:04pm

Fri Jun 26, 7:05pm

Fri Jun 26, 6:04pm

Fri Jun 26, 5:04pm

Fri Jun 26, 4:04pm

Fri Jun 26, 3:04pm

Fri Jun 26, 2:05pm

Fri Jun 26, 1:04pm

Meta data:

ID: 6f01041b-40a0-4e3a-97f6-942af2a0531a
Link: https://api.weather.gov/products/6f01041b-40a0-4e3a-97f6-942af2a0531a